Weather History for Danbury, CT

Change the Weather History Date:

Monday, December 11, 2000

  Actual Average Record
Temperature  
Mean Temperature 34 °F -  
Max Temperature 37 °F 41 °F 69 °F (1996)
Min Temperature 32 °F 25 °F -1 °F (1958)
Degree Days  
Heating Degree Days 30    
Moisture  
Dew Point 34 °F    
Average Humidity 98    
Maximum Humidity 100    
Minimum Humidity 93    
Precipitation  
Precipitation 0.00 in - - ()
Sea Level Pressure  
Sea Level Pressure 30.06 in    
Wind  
Wind Speed 2 mph (South)    
Max Wind Speed 7 mph    
Max Gust Speed -    
Visibility 3 miles    
Events Fog    
Averages and records for this station are not official NWS values.
T = Trace of Precipitation, MM = Missing Value Source: NWS Daily Summary

Daily Weather History Graph

Daily Weather History Graph

Search for Another Location

Airport:

Trip Planner

Search our weather history database for the weather conditions in past years. The results will help you decide how hot, cold, wet, or windy it might be!

Date:

Astronomy

Dec. 11, 2000 Rise Set
Actual Time 7:10 AM EST 4:24 PM EST
Civil Twilight 6:38 AM EST 4:55 PM EST
Nautical Twilight 6:04 AM EST 5:30 PM EST
Astronomical Twilight 5:30 AM EST 6:04 PM EST
Moon 4:58 PM EST (12/11) 7:13 AM EST (12/11)
Length of Visible Light 10h 16m
Length of Day
9h 14m
Full, 100% of the Moon is Illuminated
Dec 11
Full
Dec 17
Last Quarter
Dec 25
New
Jan 2
First Quarter
Jan 9
Full

Hourly Weather History & Observations

Time (EST) Temp. Windchill Dew Point Humidity Pressure Visibility Wind Dir Wind Speed Gust Speed Precip Events Conditions
6:45 AM - - - N/A% 30.17 in 0.8 mi Calm Calm - N/A Fog Fog
7:45 AM - - - N/A% 30.19 in 0.8 mi Calm Calm - N/A Fog Fog
8:45 AM - - - N/A% 30.20 in 0.8 mi Calm Calm - N/A Fog Fog
9:55 AM - - - N/A% 30.20 in 0.8 mi Calm Calm - N/A   Mist
10:45 AM - - - N/A% 30.17 in 0.8 mi Calm Calm - N/A   Mist
11:45 AM - - - N/A% 30.16 in 5.5 mi Calm Calm - N/A   Overcast
12:45 PM - - - N/A% 30.14 in 2.0 mi NE 6.9 mph - N/A   Overcast
1:24 PM 35.6 °F 31.7 °F 33.8 °F 93% 30.12 in 6.0 mi NNE 4.6 mph - N/A   Mist
1:35 PM 35.6 °F 32.8 °F 33.8 °F 93% 30.12 in 7.0 mi NNE 3.5 mph - N/A   Overcast
1:53 PM 36.0 °F 32.1 °F 34.0 °F 93% 30.14 in 7.0 mi NE 4.6 mph - N/A   Overcast
2:53 PM 36.0 °F - 34.0 °F 93% 30.13 in 6.0 mi Calm Calm - N/A   Overcast
3:32 PM 35.6 °F - 33.8 °F 93% 30.09 in 6.0 mi Calm Calm - N/A   Scattered Clouds
3:53 PM 34.0 °F 29.8 °F 33.1 °F 96% 30.10 in 5.0 mi WSW 4.6 mph - N/A   Scattered Clouds
4:00 PM 33.8 °F 29.6 °F 33.8 °F 100% 30.08 in 4.0 mi WSW 4.6 mph - N/A   Mostly Cloudy
4:20 PM 33.8 °F 28.6 °F 33.8 °F 100% 30.07 in 2.5 mi SW 5.8 mph - N/A   Mostly Cloudy
4:39 PM 33.8 °F 29.6 °F 33.8 °F 100% 30.07 in 1.5 mi SSW 4.6 mph - N/A   Overcast
4:53 PM 33.1 °F - 33.1 °F 100% 30.09 in 0.5 mi Calm Calm - N/A Fog Fog
5:53 PM 33.1 °F - 33.1 °F 100% 30.07 in 0.2 mi Calm Calm - N/A Fog Fog
7:53 PM 32.0 °F - 32.0 °F 100% 30.02 in 0.5 mi Calm Calm - N/A Fog Fog
8:02 PM 32.0 °F - 32.0 °F 100% 30.00 in 0.8 mi Calm Calm - N/A   Mist
8:08 PM 32.0 °F - 32.0 °F 100% 30.00 in 1.0 mi Calm Calm - N/A   Mist
8:16 PM 32.0 °F - 32.0 °F 100% 29.99 in 2.0 mi Calm Calm - N/A   Overcast
8:46 PM 32.0 °F - 32.0 °F 100% 29.97 in 4.0 mi Calm Calm - N/A   Overcast
8:53 PM 33.1 °F - 33.1 °F 100% 29.99 in 4.0 mi Calm Calm - N/A   Overcast
10:42 PM 35.6 °F 31.7 °F 35.6 °F 100% 29.89 in 3.0 mi SE 4.6 mph - N/A   Overcast
10:53 PM 36.0 °F 33.3 °F 36.0 °F 100% 29.91 in 1.8 mi SSE 3.5 mph - N/A   Overcast
11:07 PM 37.4 °F 34.9 °F 35.6 °F 93% 29.89 in 1.0 mi SSW 3.5 mph - N/A   Mist
11:30 PM 37.4 °F 33.8 °F 37.4 °F 100% 29.88 in 0.8 mi Variable 4.6 mph - 0.00 in   Mist
11:53 PM 37.0 °F 32.4 °F 37.0 °F 100% 29.86 in 1.0 mi SSE 5.8 mph - 0.00 in   Mist